TimeEDT,TemperatureF,Dew PointF,Humidity,Sea Level PressureIn,VisibilityMPH,Wind Direction,Wind SpeedMPH,Gust SpeedMPH,PrecipitationIn,Events,Conditions,WindDirDegrees,DateUTC
12:51 AM,77.0,71.1,82,30.01,10.0,South,6.9,-,0.00,Rain,Light Rain,170,2013-07-10 04:51:00
1:51 AM,75.9,71.1,85,29.99,10.0,SSW,4.6,-,0.00,,Mostly Cloudy,200,2013-07-10 05:51:00
2:51 AM,75.0,71.1,87,29.98,7.0,Calm,Calm,-,N/A,,Mostly Cloudy,0,2013-07-10 06:51:00
3:51 AM,75.9,71.1,85,29.97,9.0,SSE,3.5,-,N/A,,Mostly Cloudy,160,2013-07-10 07:51:00
4:51 AM,75.9,71.1,85,29.96,8.0,South,4.6,-,N/A,,Mostly Cloudy,180,2013-07-10 08:51:00
5:51 AM,75.9,71.1,85,29.97,9.0,Calm,Calm,-,N/A,,Mostly Cloudy,0,2013-07-10 09:51:00
6:51 AM,75.9,72.0,87,29.96,8.0,SSW,3.5,-,N/A,,Mostly Cloudy,210,2013-07-10 10:51:00
7:27 AM,77.0,71.6,83,29.96,9.0,SSW,9.2,-,N/A,,Mostly Cloudy,210,2013-07-10 11:27:00
7:43 AM,77.0,71.6,83,29.96,9.0,SSW,9.2,-,N/A,,Overcast,210,2013-07-10 11:43:00
7:51 AM,77.0,73.0,88,29.96,8.0,SSW,8.1,-,N/A,,Overcast,210,2013-07-10 11:51:00
8:49 AM,78.8,73.4,83,29.94,8.0,South,4.6,-,N/A,,Mostly Cloudy,180,2013-07-10 12:49:00
8:51 AM,80.1,73.9,81,29.95,8.0,Variable,4.6,-,N/A,,Mostly Cloudy,0,2013-07-10 12:51:00
9:51 AM,80.1,73.9,81,29.94,7.0,SSW,10.4,-,N/A,,Overcast,200,2013-07-10 13:51:00
10:33 AM,82.4,73.4,74,29.94,9.0,SW,12.7,-,N/A,,Overcast,220,2013-07-10 14:33:00
10:51 AM,82.0,73.0,74,29.94,9.0,SW,13.8,-,N/A,,Overcast,230,2013-07-10 14:51:00
11:48 AM,84.2,73.4,70,29.91,9.0,WSW,10.4,-,N/A,,Overcast,240,2013-07-10 15:48:00
11:51 AM,84.0,73.0,69,29.92,9.0,SW,9.2,-,N/A,,Overcast,230,2013-07-10 15:51:00
12:51 PM,84.0,73.0,69,29.90,10.0,SW,13.8,20.7,N/A,,Mostly Cloudy,220,2013-07-10 16:51:00
1:51 PM,86.0,73.0,65,29.87,9.0,SW,19.6,-,0.00,,Overcast,230,2013-07-10 17:51:00
2:51 PM,87.1,70.0,57,29.86,10.0,SW,18.4,29.9,0.00,,Mostly Cloudy,230,2013-07-10 18:51:00
3:51 PM,90.0,70.0,52,29.84,10.0,SW,16.1,-,N/A,,Mostly Cloudy,230,2013-07-10 19:51:00
4:51 PM,89.1,70.0,53,29.82,10.0,SW,13.8,-,N/A,,Mostly Cloudy,230,2013-07-10 20:51:00
5:51 PM,88.0,68.0,51,29.81,10.0,WSW,12.7,-,N/A,,Mostly Cloudy,240,2013-07-10 21:51:00
6:51 PM,88.0,68.0,51,29.83,10.0,SW,15.0,23.0,N/A,,Mostly Cloudy,230,2013-07-10 22:51:00
7:51 PM,86.0,69.1,57,29.84,10.0,WSW,13.8,18.4,N/A,,Mostly Cloudy,250,2013-07-10 23:51:00
8:51 PM,84.9,70.0,61,29.83,10.0,SW,10.4,-,N/A,,Mostly Cloudy,220,2013-07-11 00:51:00
9:51 PM,84.9,70.0,61,29.85,10.0,SW,10.4,-,N/A,,Mostly Cloudy,230,2013-07-11 01:51:00
10:51 PM,84.0,71.1,65,29.84,10.0,SW,9.2,-,N/A,,Mostly Cloudy,230,2013-07-11 02:51:00
11:51 PM,82.9,72.0,69,29.83,10.0,WSW,13.8,-,N/A,,Mostly Cloudy,240,2013-07-11 03:51:00